This demonstration page uses our WeatherBlox Daily Observations layout. Learn more.

Left ArrowRight Arrow

36.17497, -115.13722

Hourly Observations for March 21, 2019

Temp ( °F °C ) Dew Point ( °F °C ) Humidity (%) Winds ( mph kmh ) Pressure ( in mb ) Visibility ( mi km ) Precip ( " mm )
12:53 am 00:53 Cloudy 53 11.7 46 7.8 77 77 SSW 5 7 29.96 1015 10 16 0.00 0.00
1:53 am 01:53 Partly Cloudy 53 11.7 43 6.1 69 69 SE 10 17 29.97 1015 10 16 0.00 0.00
2:53 am 02:53 Mostly Clear 51 10.6 43 6.1 74 74 SSE 5 7 29.96 1014 10 16 0.00 0.00
3:53 am 03:53 Cloudy 51 10.6 43 6.1 74 74 S 6 9 29.95 1014 10 16 0.00 0.00
4:53 am 04:53 Cloudy 50 10 43 6.1 77 77 Calm 29.96 1015 10 16 0.01 0.25
5:53 am 05:53 Partly Cloudy 49 9.4 44 6.7 83 83 Calm 29.96 1015 10 16 0.00 0.00
6:53 am 06:53 Cloudy with Light Rain 49 9.4 44 6.7 83 83 NNW 5 7 29.97 1015 10 16 0.00 0.03
7:53 am 07:53 Partly Cloudy 49 9.4 44 6.7 83 83 SSE 5 7 29.99 1016 10 16 0.00 0.03
8:53 am 08:53 Partly Cloudy 52 11.1 40 4.4 64 64 SSW 6 9 29.99 1016 10 16 0.00 0.00
9:53 am 09:53 Mostly Cloudy 53 11.7 41 5 64 64 Calm 30.00 1016 10 16 0.00 0.00
10:53 am 10:53 Partly Cloudy 55 12.8 42 5.6 62 62 Calm 29.99 1016 10 16 0.00 0.00
11:53 am 11:53 Mostly Cloudy 58 14.4 36 2.2 44 44 W 13 20 29.99 1016 10 16 0.00 0.00
12:53 pm 12:53 Sunny 59 15 34 1.1 39 39 W 16 26 29.99 1016 10 16 0.00 0.00
1:53 pm 13:53 Mostly Sunny 61 16.1 34 1.1 36 36 WSW 20 31 29.97 1015 10 16 0.00 0.00
2:53 pm 14:53 Sunny 61 16.1 33 0.6 35 35 W 14 22 29.96 1015 10 16 0.00 0.00
3:53 pm 15:53 Mostly Sunny 62 16.7 32 0 32 32 W 13 20 29.96 1014 10 16 0.00 0.00
4:53 pm 16:53 Mostly Sunny 61 16.1 30 -1.1 31 31 WNW 16 26 29.95 1014 10 16 0.00 0.00
6:53 pm 18:53 Sunny 58 14.4 37 2.8 46 46 N 8 13 29.99 1016 10 16 0.00 0.00
7:53 pm 19:53 Cloudy 56 13.3 38 3.3 51 51 WNW 8 13 30.01 1016 10 16 0.00 0.00
8:53 pm 20:53 Clear 56 13.3 38 3.3 51 51 NW 5 7 30.03 1017 10 16 0.00 0.00
9:53 pm 21:53 Clear 54 12.2 38 3.3 55 55 NW 9 15 30.04 1017 10 16 0.00 0.00
10:53 pm 22:53 Clear 53 11.7 38 3.3 57 57 NNW 9 15 30.04 1017 10 16 0.00 0.00
11:53 pm 23:53 Clear 52 11.1 38 3.3 59 59 NNW 8 13 30.04 1017 10 16 0.00 0.00

Powered by AerisWeather